This is the latest recevied weather packets stored in our database for station/object G6LTT-13. If no packets are shown the sender has not sent any weather packets the latest 10 day(s).
| Time | Temp. | Humidity | Pressure | Rain* | Wind** | Luminosity | Snow |
|---|---|---|---|---|---|---|---|
| 1778025880 | 9.44° C | 77% | 1041.4 hPa | 0 mm | - | - | - |
| 1778024080 | 10° C | 75% | 1041.2 hPa | 0 mm | - | - | - |
| 1778022280 | 10° C | 74% | 1041.8 hPa | 0 mm | - | - | - |
| 1778020480 | 10.56° C | 73% | 1041.8 hPa | 0 mm | - | - | - |
| 1778018680 | 11.11° C | 70% | 1041.5 hPa | 0 mm | - | - | - |
| 1778016880 | 11.11° C | 77% | 1041.4 hPa | 0 mm | - | - | - |
| 1778015080 | 11.67° C | 74% | 1041.1 hPa | 0 mm | - | - | - |
| 1778013280 | 12.22° C | 69% | 1041 hPa | 0 mm | - | - | - |
| 1778011480 | 12.78° C | 68% | 1040.4 hPa | 0 mm | - | - | - |
| 1778009680 | 12.78° C | 66% | 1040.4 hPa | 0 mm | - | - | - |
| 1778007880 | 13.33° C | 64% | 1039.9 hPa | 0 mm | - | - | - |
| 1778006080 | 13.89° C | 65% | 1040 hPa | 0 mm | - | - | - |
| 1778004280 | 14.44° C | 57% | 1039.9 hPa | 0 mm | - | - | - |
| 1778002480 | 15.56° C | 55% | 1039.9 hPa | 0 mm | - | - | - |
| 1778000680 | 15.56° C | 54% | 1039.7 hPa | 0 mm | - | - | - |
| 1777998880 | 15.56° C | 52% | 1039.7 hPa | 0 mm | - | - | - |
| 1777997080 | 15.56° C | 47% | 1039.5 hPa | 0 mm | - | - | - |
| 1777995280 | 16.11° C | 48% | 1039.6 hPa | 0 mm | - | - | - |
| 1777993480 | 16.67° C | 47% | 1039.7 hPa | 0 mm | - | - | - |
| 1777991680 | 16.67° C | 47% | 1039.9 hPa | 0 mm | - | - | - |
| 1777989880 | 17.22° C | 45% | 1040.3 hPa | 0 mm | - | - | - |
| 1777988080 | 16.11° C | 51% | 1040.4 hPa | 0 mm | - | - | - |
| 1777986280 | 15.56° C | 54% | 1040.5 hPa | 0 mm | - | - | - |
| 1777984480 | 15° C | 57% | 1040.8 hPa | 0 mm | - | - | - |
| 1777982680 | 15.56° C | 55% | 1040.7 hPa | 0 mm | - | - | - |
* Rain latest hour (hover to see other rain measurements)
** Current wind speed in m/s (hover to see current wind gust speed)